Weather in Vasilevichi

Belarus     52˚14′38″N   29˚49′51″E
temp.,
°C
wind,
m/s
gust,
m/s
humid.,
%
clouds,
%
prec.,
mm/h
press.,
hPa
HPBL,
m
3 december, thu
thu300:00−3˚se479185 0.1 1028369
03:00−3˚se379088 0.1 1028369
06:00−3˚se369586 0.1 1027314
09:00−3˚se369291 0.2 1027373
12:00−1˚se478898 0.0 1027478
15:00se478798 0.1 1026567
18:00−1˚se4890100 0.0 1025460
21:00−1˚se51090100 0.1 1025435
4 december, fri
fri400:00se5992100 0.0 1024425
03:00se51094100 0.0 1024446
06:00+1˚se51194100 0.0 1022572
09:00+1˚se61292100 0.0 1023460
12:00+2˚se61289100 0.0 1022728
15:00+3˚se61388100 0.0 1023808
18:00+3˚se71392100 0.0 1022533
21:00+1˚se71295100 0.0 1023553
5 december, sat
sat500:00se71293100 0.0 1024547
03:00+2˚sse61296100 0.0 1025670
06:00+2˚se61293100 0.0 1024599
09:00+2˚se71390100 0.0 1026563
12:00+2˚se61287100 0.0 1026758
15:00+2˚sse61188100 0.0 1027728
18:00+2˚se61288100 0.0 1028586
21:00+1˚se6128991 0.0 1029568
6 december, sun
sun600:00se6128896 0.0 1030541
03:00−1˚se6128892 0.0 1031491
06:00−2˚se5118626 0.0 1031434
09:00−2˚se5127513 0.0 1032414
12:00−1˚se612540 0.0 1033451
15:00se612530 0.0 1032499
18:00−2˚ese512630 0.0 1033402
21:00−3˚ese613630 0.0 1034447
7 december, mon
mon700:00−3˚ese612620 0.0 1034490
03:00−3˚ese612670 0.0 1034522
06:00−4˚ese612710 0.0 1034495
09:00−4˚ese612710 0.0 1034502
12:00−3˚ese612630 0.0 1034524
15:00−2˚ese613580 0.0 1033566
18:00−4˚ese612680 0.0 1033533
21:00−4˚ese614680 0.0 1033545